contact:dominique.lefevre@mio.osupytheas.fr, maurice.libes@osupytheas.fr, didier.mallarino@osupytheas.fr
Project:EMSO http://www.emso-fr.org/EMSO-France
Depth: 2436.0 m
Title:EMSO Ligure Ouest : Data MII capteur AQUADOPP
Date,Latitude,Longitude,X_East,Y_North,Z_Up,Amplitude_X,Amplitude_Y,Amplitude_Z,Batterie,SoundSpeed,Heading,Pitch,Roll,Pressure,TIS,Speed,Direction
, degrees North, degrees East, m.s-1, m.s-1,m.s-1, 1, 1, 1, Volt, m.s-1, degree, degree, degree, dbar, degree_C, m.s-1, degree
2022-09-20T13:07:04,42.805,6.029,0.007,-0.018,-0.001,103.0,100.0,100.0,13.4,1505.2,322.8,-0.8,1.9,2471.345,13.28,0.019,158.8
2022-09-20T13:10:03,42.805,6.029,0.012,-0.011,0.009,100.0,101.0,101.0,13.4,1505.2,321.2,-0.7,1.9,2471.199,13.28,0.016,132.5
2022-09-20T13:13:03,42.805,6.029,-0.032,-0.012,0.01,102.0,102.0,101.0,13.4,1505.2,332.8,-0.7,1.8,2471.047,13.28,0.034,249.4
2022-09-20T13:16:03,42.805,6.029,-0.014,-0.014,0.02,101.0,101.0,100.0,13.3,1505.2,323.3,-0.8,1.8,2470.919,13.29,0.019,225.0
2022-09-20T13:19:03,42.805,6.029,-0.011,-0.005,0.031,102.0,102.0,100.0,13.4,1505.2,322.5,-0.7,1.8,2470.864,13.29,0.012,245.6
2022-09-20T13:22:03,42.805,6.029,-0.019,-0.012,0.007,103.0,102.0,100.0,13.4,1505.2,323.7,-0.7,1.8,2470.857,13.29,0.022,237.7
2022-09-20T13:25:03,42.805,6.029,-0.036,-0.01,0.028,101.0,101.0,100.0,13.4,1505.2,323.5,-0.8,1.8,2470.844,13.29,0.037,254.5
2022-09-20T13:28:03,42.805,6.029,-0.021,-0.022,-0.016,100.0,101.0,101.0,13.4,1505.2,334.8,-0.8,1.8,2470.834,13.29,0.03,223.7
2022-09-20T13:31:03,42.805,6.029,-0.015,-0.013,0.006,104.0,101.0,101.0,13.4,1505.2,332.2,-0.7,1.8,2470.839,13.29,0.019,229.1
2022-09-20T13:34:03,42.805,6.029,-0.014,-0.033,-0.001,100.0,101.0,100.0,13.4,1505.2,334.8,-0.7,1.8,2470.844,13.29,0.035,203.0
2022-09-20T13:37:03,42.805,6.029,-0.026,-0.009,-0.01,103.0,100.0,100.0,13.4,1505.2,327.7,-0.8,1.8,2470.846,13.29,0.027,250.9
2022-09-20T13:40:03,42.805,6.029,-0.042,-0.011,0.008,100.0,100.0,101.0,13.4,1505.2,327.3,-0.8,1.8,2470.837,13.29,0.043,255.3
2022-09-20T13:43:03,42.805,6.029,-0.018,-0.005,0.026,100.0,102.0,101.0,13.3,1505.2,328.1,-0.7,1.8,2470.884,13.29,0.018,254.5
2022-09-20T13:46:03,42.805,6.029,-0.014,-0.018,0.025,103.0,101.0,101.0,13.4,1505.2,319.4,-0.8,1.8,2470.892,13.29,0.022,217.9
2022-09-20T13:49:03,42.805,6.029,-0.017,-0.01,0.017,102.0,101.0,101.0,13.3,1505.2,323.1,-0.7,1.8,2470.899,13.29,0.019,239.5
2022-09-20T13:52:03,42.805,6.029,-0.033,-0.008,-0.003,101.0,101.0,100.0,13.4,1505.2,333.1,-0.8,1.8,2470.901,13.29,0.033,256.4
2022-09-20T13:55:03,42.805,6.029,-0.038,-0.014,-0.01,104.0,101.0,100.0,13.4,1505.2,333.4,-0.8,1.8,2470.903,13.29,0.04,249.8
2022-09-20T13:58:03,42.805,6.029,-0.031,0.001,-0.006,101.0,102.0,101.0,13.4,1505.2,331.7,-0.8,1.8,2470.932,13.29,0.031,271.8
2022-09-20T14:04:03,42.805,6.029,-0.007,-0.009,0.008,101.0,102.0,100.0,13.4,1505.2,323.6,-0.7,1.8,2470.949,13.29,0.011,217.9
2022-09-20T14:07:03,42.805,6.029,-0.013,-0.01,0.015,100.0,102.0,100.0,13.3,1505.2,334.5,-0.7,1.8,2471.012,13.29,0.016,232.4
2022-09-20T14:10:03,42.805,6.029,-0.014,-0.041,0.004,101.0,101.0,101.0,13.3,1505.2,320.8,-0.8,1.8,2470.953,13.29,0.043,198.9
2022-09-20T14:13:03,42.805,6.029,-0.032,-0.02,0.011,103.0,104.0,98.0,13.3,1505.2,317.7,-0.8,1.8,2470.989,13.29,0.037,238.0
2022-09-20T14:16:03,42.805,6.029,-0.027,-0.006,0.023,100.0,102.0,101.0,13.3,1505.2,331.4,-0.7,1.8,2470.969,13.29,0.027,257.5
2022-09-20T14:19:03,42.805,6.029,-0.036,0.008,0.022,103.0,100.0,100.0,13.3,1505.2,330.4,-0.8,1.8,2470.986,13.29,0.036,282.5
2022-09-20T14:22:03,42.805,6.029,-0.007,-0.028,0.005,102.0,103.0,100.0,13.3,1505.2,325.8,-0.8,1.8,2470.962,13.29,0.028,194.0
2022-09-20T14:25:03,42.805,6.029,-0.015,-0.013,0.002,101.0,101.0,100.0,13.4,1505.2,317.8,-0.8,1.8,2470.943,13.29,0.019,229.1
2022-09-20T14:28:03,42.805,6.029,-0.007,-0.037,-0.001,101.0,101.0,100.0,13.4,1505.2,323.3,-0.8,1.8,2470.934,13.29,0.037,190.7
2022-09-20T14:31:03,42.805,6.029,-0.02,-0.028,0.01,100.0,101.0,100.0,13.4,1505.2,331.3,-0.8,1.9,2470.943,13.29,0.034,215.5
2022-09-20T14:34:03,42.805,6.029,-0.017,-0.012,-0.002,101.0,101.0,100.0,13.3,1505.2,331.8,-0.7,1.8,2470.957,13.29,0.02,234.8
2022-09-20T14:37:03,42.805,6.029,-0.029,-0.016,0.018,102.0,101.0,100.0,13.4,1505.2,322.2,-0.8,1.8,2470.984,13.29,0.033,241.1
2022-09-20T14:40:03,42.805,6.029,-0.016,0.0,0.026,102.0,102.0,100.0,13.4,1505.2,329.0,-0.8,1.8,2470.981,13.29,0.016,270.0
2022-09-20T14:43:03,42.805,6.029,-0.016,-0.005,0.027,102.0,101.0,102.0,13.3,1505.2,321.7,-0.8,1.8,2470.95,13.29,0.016,252.6
2022-09-20T14:46:03,42.805,6.029,-0.002,-0.026,0.012,101.0,102.0,100.0,13.4,1505.2,326.4,-0.8,1.8,2470.961,13.29,0.026,184.4
2022-09-20T14:49:03,42.805,6.029,-0.045,-0.009,-0.007,99.0,103.0,101.0,13.4,1505.2,329.2,-0.7,1.8,2470.967,13.29,0.045,258.7
2022-09-20T14:52:03,42.805,6.029,-0.021,-0.015,0.023,101.0,101.0,102.0,13.4,1505.2,327.7,-0.8,1.8,2470.955,13.29,0.025,234.5
2022-09-20T14:55:03,42.805,6.029,-0.011,-0.002,0.006,103.0,102.0,101.0,13.4,1505.2,318.9,-0.8,1.8,2471.009,13.29,0.011,259.7
2022-09-20T14:58:03,42.805,6.029,-0.016,-0.015,-0.004,101.0,103.0,102.0,13.4,1505.2,325.9,-0.8,1.8,2470.987,13.29,0.021,226.9
2022-09-20T15:04:03,42.805,6.029,-0.007,-0.008,0.024,101.0,101.0,100.0,13.3,1505.2,334.9,-0.8,1.9,2471.063,13.29,0.01,221.2
2022-09-20T15:07:03,42.805,6.029,-0.02,-0.015,0.007,101.0,103.0,101.0,13.4,1505.2,323.5,-0.8,1.8,2471.028,13.29,0.025,233.1
2022-09-20T15:10:03,42.805,6.029,-0.014,-0.013,0.006,101.0,102.0,102.0,13.4,1505.2,334.0,-0.8,1.8,2471.035,13.29,0.019,227.1
2022-09-20T15:13:03,42.805,6.029,-0.02,-0.011,-0.008,101.0,102.0,100.0,13.4,1505.2,321.8,-0.8,1.8,2471.007,13.29,0.022,241.2
2022-09-20T15:16:03,42.805,6.029,-0.005,-0.004,0.033,101.0,102.0,99.0,13.4,1505.2,322.8,-0.8,1.8,2471.044,13.29,0.006,231.3
2022-09-20T15:19:03,42.805,6.029,-0.013,-0.006,0.01,101.0,102.0,101.0,13.3,1505.2,320.4,-0.8,1.8,2471.005,13.29,0.014,245.2
2022-09-20T15:22:03,42.805,6.029,0.004,-0.018,0.027,104.0,101.0,100.0,13.4,1505.2,328.3,-0.8,1.8,2470.992,13.29,0.018,167.5
2022-09-20T15:25:03,42.805,6.029,-0.011,-0.024,-0.001,102.0,102.0,100.0,13.4,1505.2,324.0,-0.8,1.8,2470.993,13.29,0.026,204.6
2022-09-20T15:28:03,42.805,6.029,-0.019,-0.01,0.018,101.0,101.0,100.0,13.3,1505.2,327.7,-0.7,1.8,2470.987,13.29,0.021,242.2
2022-09-20T15:31:03,42.805,6.029,-0.031,-0.026,-0.001,101.0,102.0,100.0,13.4,1505.2,320.3,-0.8,1.8,2471.026,13.29,0.04,230.0
2022-09-20T15:34:03,42.805,6.029,-0.029,-0.022,0.028,101.0,101.0,100.0,13.3,1505.2,326.8,-0.7,1.9,2471.025,13.29,0.036,232.8
2022-09-20T15:37:03,42.805,6.029,-0.017,-0.015,0.026,101.0,101.0,100.0,13.4,1505.2,327.0,-0.7,1.8,2470.991,13.29,0.022,228.6
2022-09-20T15:40:03,42.805,6.029,0.002,-0.034,0.01,102.0,101.0,100.0,13.3,1505.2,324.3,-0.8,1.8,2471.026,13.29,0.034,176.6
2022-09-20T15:43:03,42.805,6.029,-0.024,-0.011,0.018,102.0,101.0,100.0,13.4,1505.2,327.2,-0.7,1.8,2471.003,13.29,0.026,245.4
2022-09-20T15:46:03,42.805,6.029,-0.028,-0.011,0.026,102.0,102.0,100.0,13.4,1505.2,331.2,-0.8,1.8,2470.997,13.29,0.03,248.6
2022-09-20T15:49:03,42.805,6.029,-0.033,-0.005,0.024,102.0,100.0,99.0,13.3,1505.2,315.8,-0.7,1.8,2471.006,13.29,0.033,261.4
2022-09-20T15:52:03,42.805,6.029,-0.033,-0.008,0.034,100.0,101.0,100.0,13.3,1505.2,319.3,-0.8,1.8,2471.011,13.29,0.033,256.4
2022-09-20T15:55:03,42.805,6.029,-0.029,-0.027,-0.001,102.0,101.0,100.0,13.4,1505.2,317.4,-0.8,1.8,2470.989,13.29,0.039,227.0
2022-09-20T15:58:03,42.805,6.029,-0.012,-0.018,0.006,101.0,101.0,100.0,13.4,1505.2,318.9,-0.8,1.8,2471.009,13.29,0.021,213.7
2022-09-20T16:04:03,42.805,6.029,-0.025,-0.013,0.031,100.0,102.0,100.0,13.3,1505.2,321.1,-0.7,1.8,2471.084,13.29,0.028,242.5
2022-09-20T16:07:03,42.805,6.029,-0.005,-0.03,0.045,103.0,101.0,100.0,13.4,1505.2,322.8,-0.7,1.9,2471.083,13.29,0.03,189.5
2022-09-20T16:10:03,42.805,6.029,0.011,-0.013,0.03,101.0,101.0,100.0,13.3,1505.2,321.6,-0.8,1.8,2471.033,13.29,0.017,139.8
2022-09-20T16:13:03,42.805,6.029,0.0,-0.016,0.03,102.0,100.0,100.0,13.4,1505.2,328.6,-0.7,1.8,2471.038,13.29,0.016,180.0
2022-09-20T16:16:03,42.805,6.029,-0.023,-0.026,-0.007,101.0,102.0,100.0,13.4,1505.2,324.4,-0.8,1.8,2471.042,13.29,0.034,221.5
2022-09-20T16:19:03,42.805,6.029,-0.015,-0.039,0.023,101.0,101.0,99.0,13.4,1505.2,323.2,-0.8,1.8,2471.031,13.29,0.041,201.0
2022-09-20T16:22:03,42.805,6.029,-0.032,-0.02,-0.002,102.0,101.0,99.0,13.3,1505.2,328.8,-0.8,1.8,2470.994,13.29,0.037,238.0
2022-09-20T16:25:03,42.805,6.029,0.002,-0.015,0.021,104.0,101.0,100.0,13.4,1505.2,329.9,-0.7,1.8,2470.986,13.29,0.015,172.4
2022-09-20T16:28:03,42.805,6.029,-0.016,-0.011,0.004,102.0,101.0,100.0,13.3,1505.2,329.2,-0.8,1.8,2471.008,13.29,0.019,235.5
2022-09-20T16:31:03,42.805,6.029,-0.002,-0.018,-0.008,102.0,102.0,100.0,13.4,1505.2,319.7,-0.8,1.8,2470.992,13.29,0.018,186.3
2022-09-20T16:34:03,42.805,6.029,-0.016,-0.015,0.017,101.0,101.0,100.0,13.3,1505.2,319.2,-0.7,1.8,2471.015,13.29,0.021,226.9
2022-09-20T16:37:03,42.805,6.029,-0.02,-0.013,0.018,103.0,101.0,100.0,13.4,1505.2,327.9,-0.8,1.8,2471.014,13.29,0.023,237.0
2022-09-20T16:40:03,42.805,6.029,-0.027,-0.01,0.003,101.0,100.0,100.0,13.4,1505.2,332.2,-0.7,1.8,2471.007,13.29,0.028,249.7
2022-09-20T16:43:03,42.805,6.029,-0.014,-0.01,0.029,101.0,101.0,100.0,13.4,1505.2,326.6,-0.7,1.8,2471.015,13.29,0.017,234.5
2022-09-20T16:46:03,42.805,6.029,-0.004,-0.024,0.043,102.0,101.0,100.0,13.4,1505.2,325.3,-0.7,1.8,2471.038,13.29,0.024,189.5
2022-09-20T16:49:03,42.805,6.029,-0.003,-0.007,0.019,102.0,102.0,100.0,13.4,1505.2,329.8,-0.8,1.8,2471.032,13.29,0.007,203.2
2022-09-20T16:52:03,42.805,6.029,-0.018,-0.023,0.01,102.0,101.0,100.0,13.4,1505.2,328.3,-0.7,1.8,2471.053,13.29,0.029,218.0
2022-09-20T16:55:03,42.805,6.029,-0.024,-0.005,0.031,102.0,101.0,100.0,13.4,1505.2,323.7,-0.8,1.8,2471.017,13.3,0.024,258.2
2022-09-20T16:58:03,42.805,6.029,-0.003,-0.006,0.017,102.0,102.0,103.0,13.4,1505.2,317.0,-0.8,1.8,2471.032,13.3,0.006,206.6
2022-09-20T17:04:03,42.805,6.029,-0.006,-0.002,0.031,101.0,102.0,100.0,13.3,1505.2,332.6,-0.7,1.8,2471.059,13.29,0.006,251.6
2022-09-20T17:07:03,42.805,6.029,-0.007,-0.014,0.019,101.0,101.0,101.0,13.3,1505.2,318.2,-0.7,1.8,2471.065,13.29,0.015,206.6
2022-09-20T17:10:03,42.805,6.029,-0.006,-0.026,0.01,101.0,101.0,101.0,13.4,1505.2,331.9,-0.7,1.8,2471.049,13.29,0.026,193.0
2022-09-20T17:13:03,42.805,6.029,-0.012,-0.009,0.027,102.0,101.0,100.0,13.4,1505.2,323.3,-0.7,1.8,2471.037,13.29,0.015,233.1
2022-09-20T17:16:03,42.805,6.029,-0.03,-0.015,-0.008,102.0,101.0,99.0,13.4,1505.2,331.9,-0.8,1.8,2471.029,13.29,0.033,243.4
2022-09-20T17:19:03,42.805,6.029,-0.011,-0.021,0.019,101.0,102.0,100.0,13.4,1505.2,325.3,-0.8,1.8,2470.996,13.29,0.023,207.6
2022-09-20T17:22:03,42.805,6.029,-0.028,-0.01,0.009,103.0,102.0,100.0,13.4,1505.2,332.3,-0.7,1.8,2471.047,13.29,0.029,250.4
2022-09-20T17:25:03,42.805,6.029,-0.007,-0.029,-0.017,102.0,101.0,100.0,13.4,1505.2,332.0,-0.7,1.8,2471.001,13.29,0.029,193.6
2022-09-20T17:28:03,42.805,6.029,0.002,-0.037,0.007,101.0,104.0,100.0,13.4,1505.2,323.7,-0.8,1.8,2471.03,13.29,0.037,176.9
2022-09-20T17:31:03,42.805,6.029,-0.02,-0.028,0.014,101.0,102.0,101.0,13.4,1505.2,327.7,-0.7,1.8,2471.023,13.29,0.034,215.5
2022-09-20T17:34:03,42.805,6.029,-0.013,-0.02,0.007,101.0,101.0,100.0,13.4,1505.2,326.1,-0.7,1.8,2471.048,13.3,0.023,213.0
2022-09-20T17:37:03,42.805,6.029,-0.012,-0.029,-0.004,101.0,102.0,101.0,13.4,1505.2,324.8,-0.8,1.8,2471.036,13.3,0.031,202.5
2022-09-20T17:40:03,42.805,6.029,-0.024,-0.031,0.0,101.0,102.0,100.0,13.4,1505.2,323.5,-0.8,1.8,2471.044,13.3,0.039,217.7
2022-09-20T17:43:03,42.805,6.029,-0.001,-0.032,0.022,102.0,102.0,101.0,13.4,1505.2,324.6,-0.8,1.8,2471.02,13.29,0.032,181.8
2022-09-20T17:46:03,42.805,6.029,-0.025,-0.015,0.015,101.0,101.0,100.0,13.4,1505.2,327.7,-0.8,1.8,2471.013,13.29,0.029,239.0
2022-09-20T17:49:03,42.805,6.029,-0.02,-0.016,0.041,101.0,101.0,100.0,13.4,1505.2,329.8,-0.8,1.8,2471.046,13.29,0.025,231.3
2022-09-20T17:52:03,42.805,6.029,-0.013,-0.012,0.009,101.0,101.0,100.0,13.4,1505.2,319.3,-0.8,1.8,2471.046,13.3,0.017,227.3
2022-09-20T17:55:03,42.805,6.029,-0.005,-0.029,0.025,102.0,102.0,99.0,13.4,1505.2,317.9,-0.8,1.8,2471.044,13.29,0.029,189.8
2022-09-20T17:58:03,42.805,6.029,-0.012,-0.02,-0.001,101.0,101.0,102.0,13.4,1505.2,321.3,-0.8,1.8,2471.022,13.29,0.023,211.0
2022-09-20T18:04:03,42.805,6.029,-0.021,-0.013,0.02,102.0,101.0,100.0,13.4,1505.2,327.5,-0.8,1.8,2471.057,13.29,0.024,238.2
2022-09-20T18:07:03,42.805,6.029,0.003,-0.017,0.04,101.0,101.0,101.0,13.3,1505.2,326.8,-0.8,1.8,2471.063,13.29,0.017,170.0
2022-09-20T18:10:03,42.805,6.029,-0.01,-0.022,0.018,102.0,101.0,101.0,13.4,1505.2,326.3,-0.8,1.8,2471.061,13.29,0.024,204.4
2022-09-20T18:13:03,42.805,6.029,-0.012,-0.01,0.013,101.0,102.0,102.0,13.3,1505.2,319.4,-0.7,1.8,2471.093,13.29,0.015,230.2
2022-09-20T18:16:03,42.805,6.029,-0.006,-0.008,0.022,101.0,102.0,100.0,13.4,1505.2,325.7,-0.8,1.8,2471.034,13.29,0.01,216.9
2022-09-20T18:19:03,42.805,6.029,0.0,-0.023,0.048,101.0,100.0,100.0,13.4,1505.2,322.0,-0.7,1.8,2471.004,13.29,0.023,180.0
2022-09-20T18:22:03,42.805,6.029,0.002,-0.016,0.012,101.0,102.0,102.0,13.4,1505.2,328.1,-0.8,1.8,2471.013,13.29,0.016,172.9
2022-09-20T18:25:03,42.805,6.029,0.008,-0.034,0.004,101.0,102.0,101.0,13.4,1505.2,330.4,-0.8,1.8,2471.052,13.29,0.034,166.8
2022-09-20T18:28:03,42.805,6.029,-0.012,-0.021,0.017,100.0,102.0,101.0,13.4,1505.2,328.3,-0.7,1.8,2470.997,13.29,0.024,209.7
2022-09-20T18:31:03,42.805,6.029,0.004,-0.006,0.019,100.0,102.0,102.0,13.4,1505.2,325.3,-0.8,1.8,2471.008,13.29,0.007,146.3
2022-09-20T18:34:03,42.805,6.029,0.012,-0.019,0.026,102.0,100.0,101.0,13.4,1505.2,331.8,-0.8,1.8,2470.998,13.29,0.022,147.7
2022-09-20T18:37:03,42.805,6.029,0.0,-0.03,0.018,101.0,102.0,100.0,13.4,1505.2,319.6,-0.8,1.8,2471.025,13.29,0.03,180.0
2022-09-20T18:40:03,42.805,6.029,-0.019,-0.023,0.0,102.0,105.0,100.0,13.3,1505.2,331.4,-0.8,1.8,2471.006,13.29,0.029,219.6
2022-09-20T18:43:03,42.805,6.029,-0.014,-0.03,-0.005,99.0,102.0,101.0,13.4,1505.2,334.9,-0.8,1.8,2471.032,13.29,0.033,205.0
2022-09-20T18:46:03,42.805,6.029,-0.021,-0.018,-0.006,101.0,100.0,101.0,13.4,1505.2,320.6,-0.8,1.8,2471.021,13.29,0.027,229.4
2022-09-20T18:49:03,42.805,6.029,-0.029,-0.003,0.02,101.0,101.0,99.0,13.3,1505.2,322.8,-0.8,1.8,2471.007,13.29,0.029,264.1
2022-09-20T18:52:03,42.805,6.029,-0.01,-0.029,-0.002,102.0,101.0,100.0,13.4,1505.2,325.0,-0.8,1.8,2471.01,13.29,0.03,199.0
2022-09-20T18:55:03,42.805,6.029,-0.005,-0.024,0.0,102.0,103.0,100.0,13.4,1505.2,319.2,-0.8,1.8,2471.002,13.29,0.024,191.8
2022-09-20T18:58:03,42.805,6.029,-0.026,-0.002,0.047,101.0,101.0,100.0,13.4,1505.2,318.9,-0.8,1.8,2470.981,13.29,0.026,265.6
2022-09-20T19:04:03,42.805,6.029,-0.008,-0.002,0.019,101.0,104.0,100.0,13.3,1505.2,320.5,-0.8,1.8,2471.09,13.29,0.008,256.0
2022-09-20T19:07:03,42.805,6.029,-0.013,-0.046,-0.018,101.0,101.0,100.0,13.3,1505.2,326.6,-0.8,1.8,2471.057,13.29,0.047,195.8
2022-09-20T19:10:03,42.805,6.029,-0.016,-0.037,0.017,103.0,104.0,99.0,13.4,1505.2,316.6,-0.8,1.8,2471.057,13.29,0.04,203.4
2022-09-20T19:13:03,42.805,6.029,-0.032,-0.002,0.023,101.0,102.0,100.0,13.3,1505.2,333.1,-0.8,1.8,2471.025,13.29,0.032,266.4
2022-09-20T19:16:03,42.805,6.029,-0.046,-0.025,-0.022,101.0,102.0,100.0,13.4,1505.2,323.2,-0.8,1.8,2471.027,13.29,0.052,241.5
2022-09-20T19:19:03,42.805,6.029,-0.019,-0.016,0.002,101.0,102.0,100.0,13.3,1505.2,329.0,-0.8,1.8,2470.987,13.29,0.024,229.9
2022-09-20T19:22:03,42.805,6.029,-0.022,-0.018,0.004,102.0,101.0,100.0,13.4,1505.2,323.3,-0.7,1.8,2471.014,13.29,0.028,230.7
2022-09-20T19:25:03,42.805,6.029,0.014,-0.018,0.025,101.0,101.0,99.0,13.4,1505.2,321.7,-0.7,1.8,2471.039,13.29,0.022,142.1
2022-09-20T19:28:03,42.805,6.029,-0.018,-0.006,0.008,101.0,102.0,100.0,13.3,1505.2,325.3,-0.8,1.8,2470.967,13.29,0.018,251.6
2022-09-20T19:31:03,42.805,6.029,0.0,-0.027,0.01,101.0,101.0,101.0,13.4,1505.2,331.0,-0.8,1.8,2470.987,13.29,0.026,180.0
2022-09-20T19:34:03,42.805,6.029,-0.002,-0.023,0.012,100.0,102.0,100.0,13.4,1505.2,332.8,-0.8,1.8,2471.022,13.3,0.023,185.0
2022-09-20T19:37:03,42.805,6.029,-0.018,-0.005,0.039,101.0,102.0,101.0,13.4,1505.2,327.6,-0.8,1.8,2470.964,13.3,0.018,254.5
2022-09-20T19:40:03,42.805,6.029,0.0,-0.029,0.001,102.0,101.0,100.0,13.4,1505.2,324.8,-0.7,1.8,2471.039,13.3,0.028,180.0
2022-09-20T19:43:03,42.805,6.029,-0.015,-0.036,-0.005,100.0,103.0,100.0,13.4,1505.2,322.2,-0.7,1.8,2471.018,13.29,0.039,202.6
2022-09-20T19:46:03,42.805,6.029,-0.018,-0.011,-0.002,103.0,103.0,99.0,13.4,1505.2,327.9,-0.8,1.8,2470.988,13.29,0.021,238.6
2022-09-20T19:49:03,42.805,6.029,-0.007,-0.006,0.006,101.0,102.0,99.0,13.3,1505.2,323.9,-0.8,1.8,2470.964,13.29,0.009,229.4
2022-09-20T19:52:03,42.805,6.029,0.005,-0.05,-0.006,102.0,103.0,101.0,13.4,1505.2,320.4,-0.8,1.8,2470.97,13.29,0.05,174.3
2022-09-20T19:55:03,42.805,6.029,-0.016,-0.059,-0.011,104.0,101.0,100.0,13.4,1505.2,327.6,-0.8,1.8,2470.984,13.29,0.061,195.2
2022-09-20T19:58:03,42.805,6.029,0.018,-0.054,-0.003,103.0,101.0,102.0,13.3,1505.2,322.3,-0.8,1.8,2471.009,13.29,0.056,161.6
2022-09-20T20:04:03,42.805,6.029,0.003,-0.033,0.008,100.0,101.0,100.0,13.4,1505.2,319.4,-0.7,1.8,2471.006,13.28,0.033,174.8
2022-09-20T20:07:03,42.805,6.029,-0.001,-0.019,0.015,100.0,103.0,100.0,13.3,1505.2,318.9,-0.8,1.8,2471.057,13.29,0.019,183.0
2022-09-20T20:10:03,42.805,6.029,-0.012,-0.044,0.002,103.0,101.0,100.0,13.3,1505.2,328.1,-0.7,1.8,2471.034,13.29,0.045,195.3
2022-09-20T20:13:03,42.805,6.029,-0.007,-0.008,0.032,102.0,103.0,100.0,13.3,1505.2,333.7,-0.7,1.8,2471.012,13.29,0.01,221.2
2022-09-20T20:16:03,42.805,6.029,-0.011,-0.028,0.001,102.0,101.0,100.0,13.3,1505.2,322.5,-0.8,1.8,2471.001,13.29,0.03,201.4
2022-09-20T20:19:03,42.805,6.029,-0.001,-0.009,0.03,101.0,101.0,101.0,13.3,1505.2,319.3,-0.8,1.8,2470.999,13.29,0.009,186.3
2022-09-20T20:22:03,42.805,6.029,-0.02,-0.028,-0.007,101.0,102.0,100.0,13.4,1505.2,322.5,-0.8,1.8,2470.948,13.29,0.034,215.5
2022-09-20T20:25:03,42.805,6.029,-0.001,-0.029,0.018,100.0,102.0,99.0,13.3,1505.2,327.8,-0.8,1.8,2470.982,13.29,0.029,182.0
2022-09-20T20:28:03,42.805,6.029,-0.013,-0.036,-0.008,101.0,101.0,100.0,13.4,1505.2,325.9,-0.8,1.8,2470.994,13.29,0.038,199.9
2022-09-20T20:31:03,42.805,6.029,-0.011,-0.012,0.005,100.0,101.0,102.0,13.4,1505.2,327.5,-0.7,1.8,2470.969,13.29,0.016,222.5
2022-09-20T20:34:03,42.805,6.029,-0.011,-0.025,-0.006,100.0,101.0,104.0,13.3,1505.2,322.6,-0.8,1.8,2470.999,13.29,0.027,203.7
2022-09-20T20:37:03,42.805,6.029,-0.016,-0.013,0.033,99.0,103.0,101.0,13.4,1505.2,329.9,-0.7,1.8,2470.957,13.29,0.02,230.9
2022-09-20T20:40:03,42.805,6.029,-0.018,-0.035,-0.006,100.0,100.0,101.0,13.4,1505.2,333.1,-0.8,1.8,2470.958,13.29,0.039,207.2
2022-09-20T20:43:03,42.805,6.029,-0.005,-0.037,0.004,101.0,101.0,100.0,13.4,1505.2,329.6,-0.8,1.8,2470.989,13.29,0.037,187.7
2022-09-20T20:46:03,42.805,6.029,-0.005,-0.017,0.022,101.0,101.0,100.0,13.3,1505.2,328.2,-0.8,1.9,2471.003,13.29,0.017,196.4
2022-09-20T20:49:03,42.805,6.029,-0.023,-0.017,0.0,103.0,102.0,100.0,13.3,1505.2,325.9,-0.8,1.8,2471.001,13.29,0.028,233.5
2022-09-20T20:52:03,42.805,6.029,-0.009,-0.01,0.009,101.0,101.0,101.0,13.3,1505.2,328.5,-0.8,1.8,2470.982,13.29,0.013,222.0
2022-09-20T20:55:03,42.805,6.029,0.008,-0.042,0.0,101.0,101.0,100.0,13.3,1505.2,324.1,-0.8,1.8,2470.984,13.29,0.042,169.2
2022-09-20T20:58:03,42.805,6.029,-0.027,-0.012,-0.012,100.0,102.0,100.0,13.4,1505.2,334.6,-0.8,1.9,2470.94,13.29,0.029,246.0
2022-09-20T21:04:03,42.805,6.029,0.004,-0.026,-0.006,101.0,101.0,100.0,13.3,1505.2,319.9,-0.8,1.8,2471.0,13.29,0.026,171.3
2022-09-20T21:07:03,42.805,6.029,-0.017,-0.03,-0.002,100.0,101.0,100.0,13.4,1505.2,328.6,-0.7,1.8,2471.005,13.29,0.034,209.5
2022-09-20T21:10:03,42.805,6.029,0.001,-0.032,-0.002,100.0,101.0,101.0,13.3,1505.2,321.3,-0.8,1.8,2471.024,13.29,0.032,178.2
2022-09-20T21:13:03,42.805,6.029,-0.021,-0.028,0.004,100.0,101.0,100.0,13.4,1505.2,333.4,-0.8,1.8,2470.976,13.29,0.035,216.9
2022-09-20T21:16:03,42.805,6.029,-0.03,-0.054,-0.055,101.0,102.0,100.0,13.4,1505.2,329.6,-0.8,1.8,2470.971,13.29,0.061,209.1
2022-09-20T21:19:03,42.805,6.029,-0.004,-0.043,0.039,102.0,102.0,100.0,13.4,1505.2,329.6,-0.7,1.8,2470.919,13.29,0.043,185.3
2022-09-20T21:22:03,42.805,6.029,0.007,-0.039,0.018,101.0,99.0,100.0,13.3,1505.2,332.8,-0.7,1.8,2470.927,13.29,0.039,169.8
2022-09-20T21:25:03,42.805,6.029,-0.002,-0.035,0.014,99.0,102.0,101.0,13.4,1505.2,322.5,-0.8,1.8,2470.964,13.29,0.035,183.3
2022-09-20T21:28:03,42.805,6.029,0.007,-0.042,-0.037,100.0,101.0,100.0,13.4,1505.2,331.5,-0.7,1.8,2470.913,13.29,0.042,170.5
2022-09-20T21:31:03,42.805,6.029,-0.02,-0.02,0.034,105.0,101.0,100.0,13.4,1505.2,328.5,-0.8,1.8,2470.933,13.29,0.028,225.0
2022-09-20T21:34:03,42.805,6.029,-0.011,-0.017,0.0,100.0,101.0,102.0,13.4,1505.2,321.3,-0.8,1.8,2470.93,13.29,0.02,212.9
2022-09-20T21:37:03,42.805,6.029,0.022,-0.031,0.023,101.0,102.0,100.0,13.4,1505.2,326.8,-0.8,1.8,2470.952,13.29,0.038,144.6
2022-09-20T21:40:03,42.805,6.029,-0.002,-0.022,0.016,100.0,103.0,100.0,13.4,1505.2,318.1,-0.8,1.8,2470.963,13.29,0.022,185.2
2022-09-20T21:43:03,42.805,6.029,-0.041,-0.038,-0.007,100.0,101.0,100.0,13.4,1505.2,333.1,-0.8,1.8,2470.958,13.29,0.055,227.2
2022-09-20T21:46:03,42.805,6.029,-0.013,-0.032,-0.002,102.0,101.0,100.0,13.3,1505.2,322.4,-0.8,1.8,2470.979,13.29,0.034,202.1
2022-09-20T21:49:03,42.805,6.029,-0.002,-0.032,0.001,102.0,101.0,100.0,13.4,1505.2,322.5,-0.8,1.8,2470.973,13.29,0.032,183.6
2022-09-20T21:52:03,42.805,6.029,0.007,-0.025,0.005,100.0,101.0,100.0,13.3,1505.2,327.4,-0.8,1.8,2470.931,13.29,0.025,164.4
2022-09-20T21:55:03,42.805,6.029,-0.027,0.002,0.019,101.0,100.0,100.0,13.3,1505.2,331.9,-0.7,1.8,2470.956,13.29,0.027,274.2
2022-09-20T21:58:03,42.805,6.029,-0.01,-0.03,0.016,101.0,102.0,100.0,13.4,1505.2,325.6,-0.8,1.8,2470.965,13.29,0.031,198.4
2022-09-20T22:04:03,42.805,6.029,-0.012,-0.034,-0.002,100.0,102.0,100.0,13.4,1505.2,325.7,-0.8,1.8,2470.962,13.29,0.036,199.4
2022-09-20T22:07:03,42.805,6.029,-0.021,-0.033,-0.003,101.0,100.0,100.0,13.3,1505.2,330.8,-0.8,1.8,2471.027,13.29,0.039,212.5
2022-09-20T22:10:03,42.805,6.029,-0.014,-0.044,0.015,100.0,100.0,101.0,13.3,1505.2,320.8,-0.7,1.8,2470.978,13.29,0.046,197.6
2022-09-20T22:13:03,42.805,6.029,-0.004,-0.047,0.026,101.0,102.0,100.0,13.4,1505.2,332.5,-0.8,1.8,2470.969,13.29,0.047,184.9
2022-09-20T22:16:03,42.805,6.029,-0.016,-0.022,0.034,102.0,101.0,100.0,13.4,1505.2,321.1,-0.7,1.8,2470.967,13.29,0.027,216.0
2022-09-20T22:19:03,42.805,6.029,0.003,-0.027,0.034,102.0,99.0,101.0,13.4,1505.2,319.1,-0.8,1.8,2470.987,13.29,0.027,173.7
2022-09-20T22:22:03,42.805,6.029,-0.01,-0.016,0.013,103.0,101.0,100.0,13.4,1505.2,317.3,-0.8,1.8,2470.945,13.29,0.018,212.0
2022-09-20T22:25:03,42.805,6.029,-0.006,-0.042,0.002,102.0,103.0,100.0,13.4,1505.2,325.0,-0.8,1.8,2470.955,13.29,0.042,188.1
2022-09-20T22:28:03,42.805,6.029,0.001,-0.042,0.021,101.0,102.0,100.0,13.4,1505.2,332.5,-0.8,1.8,2470.987,13.29,0.042,178.6
2022-09-20T22:31:03,42.805,6.029,-0.024,-0.022,0.021,100.0,101.0,101.0,13.3,1505.2,322.1,-0.7,1.8,2470.97,13.29,0.032,227.5
2022-09-20T22:34:03,42.805,6.029,-0.01,-0.03,0.002,101.0,104.0,101.0,13.3,1505.2,323.2,-0.8,1.8,2470.979,13.29,0.031,198.4
2022-09-20T22:37:03,42.805,6.029,-0.041,-0.029,-0.031,101.0,102.0,101.0,13.3,1505.2,329.4,-0.7,1.8,2470.945,13.29,0.05,234.7
2022-09-20T22:40:03,42.805,6.029,-0.019,-0.052,-0.008,101.0,102.0,101.0,13.4,1505.2,322.7,-0.8,1.8,2470.925,13.29,0.055,200.1
2022-09-20T22:43:03,42.805,6.029,0.004,-0.034,0.002,101.0,100.0,100.0,13.3,1505.2,323.0,-0.7,1.8,2470.894,13.29,0.034,173.3
2022-09-20T22:46:03,42.805,6.029,0.026,-0.05,0.005,101.0,102.0,99.0,13.4,1505.2,324.2,-0.7,1.8,2470.884,13.29,0.056,152.5
2022-09-20T22:49:03,42.805,6.029,-0.013,-0.044,-0.016,101.0,101.0,101.0,13.4,1505.2,322.2,-0.7,1.8,2470.944,13.29,0.045,196.5
2022-09-20T22:52:03,42.805,6.029,-0.023,-0.026,-0.021,102.0,101.0,99.0,13.4,1505.2,324.9,-0.7,1.8,2470.931,13.29,0.034,221.5
2022-09-20T22:55:03,42.805,6.029,0.0,-0.027,0.014,102.0,100.0,102.0,13.4,1505.2,319.3,-0.7,1.8,2470.923,13.29,0.026,180.0
2022-09-20T22:58:03,42.805,6.029,-0.016,-0.019,-0.001,101.0,100.0,101.0,13.4,1505.2,325.5,-0.7,1.8,2470.902,13.29,0.024,220.1